Weather History for Plant City, FL

Change the Weather History Date:

Thursday, April 4, 2013

  Actual Average Record
Temperature  
Mean Temperature 70 °F -  
Max Temperature 73 °F 82 °F 91 °F (1945)
Min Temperature 68 °F 58 °F 41 °F (1936)
Cooling Degree Days 6    
Growing Degree Days 20 (Base 50)    
Moisture  
Dew Point 64 °F    
Average Humidity 79    
Maximum Humidity 100    
Minimum Humidity 69    
Precipitation  
Precipitation 0.40 in - - ()
Sea Level Pressure  
Sea Level Pressure 29.99 in    
Wind  
Wind Speed 6 mph (South)    
Max Wind Speed 17 mph    
Max Gust Speed 23 mph    
Visibility 9 miles    
Events Rain    
Averages and records for this station are not official NWS values.
T = Trace of Precipitation, MM = Missing Value Source: NWS Daily Summary

Daily Weather History Graph

Daily Weather History Graph

Search for Another Location

Airport:

Trip Planner

Search our weather history database for the weather conditions in past years. The results will help you decide how hot, cold, wet, or windy it might be!

Date:

Astronomy

Apr. 04, 2013 Rise Set
Actual Time 7:15 AM EDT 7:48 PM EDT
Civil Twilight 6:51 AM EDT 8:11 PM EDT
Nautical Twilight 6:23 AM EDT 8:39 PM EDT
Astronomical Twilight 5:55 AM EDT 9:07 PM EDT
Moon 3:12 AM EDT (4/4) 2:31 PM EDT (4/4)
Length of Visible Light 13h 20m
Length of Day
12h 32m
Waning Crescent, 34% of the Moon is Illuminated
Apr 4
Waning Crescent
Apr 10
New
Apr 18
First Quarter
Apr 25
Full
May 2
Last Quarter

Hourly Weather History & Observations

Time (EDT) Temp. Dew Point Humidity Pressure Visibility Wind Dir Wind Speed Gust Speed Precip Events Conditions
12:15 AM 69.8 °F - N/A% 30.04 in 7.0 mi Calm Calm - 0.01 in Rain Light Rain
12:35 AM 69.8 °F - N/A% 30.03 in 7.0 mi Calm Calm - 0.01 in   Clear
12:55 AM 69.8 °F - N/A% 30.04 in 5.0 mi NE 3.5 mph - 0.01 in   Haze
1:15 AM 69.8 °F - N/A% 30.02 in 7.0 mi SE 4.6 mph - N/A   Scattered Clouds
1:35 AM 69.8 °F - N/A% 30.01 in 10.0 mi SE 6.9 mph - N/A   Scattered Clouds
1:55 AM 69.8 °F - N/A% 30.02 in 10.0 mi ESE 3.5 mph - N/A   Clear
2:15 AM 69.8 °F - N/A% 30.01 in 7.0 mi SSE 6.9 mph - N/A   Clear
2:35 AM 69.8 °F - N/A% 29.98 in 7.0 mi South 12.7 mph - N/A   Scattered Clouds
2:55 AM 69.8 °F - N/A% 29.99 in 10.0 mi South 9.2 mph - N/A   Scattered Clouds
3:15 AM 71.6 °F - N/A% 29.98 in 10.0 mi South 9.2 mph - N/A   Scattered Clouds
3:35 AM 71.6 °F - N/A% 29.99 in 10.0 mi South 8.1 mph - N/A   Scattered Clouds
3:55 AM 71.6 °F - N/A% 30.00 in 10.0 mi West 3.5 mph - N/A   Mostly Cloudy
4:15 AM 71.6 °F - N/A% 30.00 in 10.0 mi Calm Calm - N/A   Mostly Cloudy
4:35 AM 69.8 °F - N/A% 30.00 in 7.0 mi Calm Calm - N/A   Mostly Cloudy
4:55 AM 69.8 °F - N/A% 30.01 in 7.0 mi Calm Calm - N/A Rain Rain
5:15 AM 69.8 °F - N/A% 30.01 in 7.0 mi South 5.8 mph - 0.01 in Rain Light Rain
5:35 AM 69.8 °F - N/A% 30.01 in 7.0 mi SSE 8.1 mph - 0.01 in   Light Drizzle
5:55 AM 69.8 °F - N/A% 29.99 in 10.0 mi South 17.3 mph 21.9 mph 0.01 in Rain Light Rain
6:15 AM 69.8 °F - N/A% 29.99 in 10.0 mi South 11.5 mph 21.9 mph 0.01 in Rain Light Rain
6:35 AM 69.8 °F - N/A% 29.99 in 10.0 mi South 15.0 mph 20.7 mph 0.01 in Rain Light Rain
6:55 AM 69.8 °F - N/A% 30.00 in 10.0 mi South 13.8 mph 18.4 mph 0.01 in   Overcast
7:15 AM 69.8 °F - N/A% 29.99 in 10.0 mi SSE 12.7 mph - N/A Rain Light Rain
7:35 AM 69.8 °F - N/A% 29.99 in 10.0 mi South 10.4 mph 17.3 mph 0.01 in Rain Light Rain
7:55 AM 71.6 °F - N/A% 29.99 in 10.0 mi South 13.8 mph - 0.01 in   Clear
8:15 AM 71.6 °F - N/A% 29.97 in 10.0 mi SSE 9.2 mph - N/A Rain Light Rain
8:35 AM 71.6 °F - N/A% 29.98 in 7.0 mi South 10.4 mph - 0.01 in Rain Light Rain
8:55 AM 71.6 °F - N/A% 29.99 in 10.0 mi South 9.2 mph - 0.01 in Rain Light Rain
9:15 AM 71.6 °F - N/A% 30.00 in 10.0 mi South 8.1 mph - N/A Rain Light Rain
9:35 AM 71.6 °F - N/A% 30.01 in 10.0 mi SSW 6.9 mph - N/A   Overcast
9:55 AM 71.6 °F - N/A% 30.00 in 10.0 mi South 5.8 mph - N/A   Overcast
10:15 AM 71.6 °F - N/A% 30.02 in 10.0 mi South 10.4 mph - N/A   Scattered Clouds
10:35 AM 71.6 °F - N/A% 30.02 in 10.0 mi SSW 10.4 mph - N/A   Scattered Clouds
10:55 AM 71.6 °F - N/A% 30.02 in 10.0 mi South 9.2 mph - N/A   Clear
11:15 AM 71.6 °F - N/A% 30.03 in 10.0 mi SSW 4.6 mph - N/A   Clear
11:35 AM 71.6 °F - N/A% 30.04 in 10.0 mi SSW 6.9 mph - N/A   Scattered Clouds
11:55 AM 71.6 °F - N/A% 30.04 in 10.0 mi SSW 9.2 mph - N/A   Mostly Cloudy
12:35 PM 71.6 °F - N/A% 30.08 in 10.0 mi SSW 9.2 mph - N/A Rain Light Rain
12:55 PM 69.8 °F - N/A% 30.09 in 7.0 mi SW 13.8 mph 23.0 mph 0.02 in Rain Rain
1:15 PM 68.0 °F - N/A% 30.09 in 7.0 mi SW 9.2 mph 21.9 mph 0.05 in Rain Light Rain
1:35 PM 68.0 °F - N/A% 30.07 in 4.0 mi WSW 6.9 mph - 0.14 in Rain Rain
1:55 PM 68.0 °F - N/A% 30.08 in 7.0 mi WSW 9.2 mph - 0.21 in Rain Light Rain
2:15 PM 68.0 °F - N/A% 30.07 in 7.0 mi WSW 8.1 mph - 0.03 in Rain Rain
2:35 PM 68.0 °F - N/A% 30.07 in 7.0 mi SSW 6.9 mph - 0.07 in Rain Light Rain
2:55 PM 68.0 °F - N/A% 30.04 in 7.0 mi South 4.6 mph - 0.10 in Rain Light Rain
3:15 PM 68.0 °F - N/A% 30.02 in 10.0 mi SSE 11.5 mph - 0.01 in Rain Light Rain
3:35 PM 68.0 °F - N/A% 30.01 in 10.0 mi South 10.4 mph - 0.01 in Rain Light Rain
3:55 PM 68.0 °F - N/A% 29.98 in 10.0 mi South 9.2 mph 20.7 mph 0.02 in   Overcast
4:15 PM 69.8 °F - N/A% 29.96 in 10.0 mi South 5.8 mph - N/A   Overcast
4:35 PM 69.8 °F - N/A% 29.94 in 10.0 mi SSE 10.4 mph - N/A   Scattered Clouds
4:55 PM 69.8 °F - N/A% 29.94 in 10.0 mi SSE 10.4 mph - N/A   Scattered Clouds
5:15 PM 71.6 °F - N/A% 29.92 in 10.0 mi SE 5.8 mph - N/A   Scattered Clouds
5:35 PM 73.4 °F 64.4 °F 73% 29.93 in 10.0 mi SE 10.4 mph 16.1 mph N/A   Clear
5:55 PM 73.4 °F 62.6 °F 69% 29.92 in 10.0 mi SE 9.2 mph - N/A   Clear
6:15 PM 73.4 °F 64.4 °F 73% 29.92 in 10.0 mi SE 4.6 mph - N/A   Clear
6:35 PM 73.4 °F 62.6 °F 69% 29.91 in 10.0 mi SE 5.8 mph - N/A   Clear
6:55 PM 71.6 °F 62.6 °F 73% 29.91 in 10.0 mi SE 4.6 mph - N/A   Clear
7:15 PM 71.6 °F 62.6 °F 73% 29.91 in 10.0 mi SSE 5.8 mph - N/A   Clear
7:35 PM 69.8 °F 62.6 °F 78% 29.90 in 10.0 mi SSE 4.6 mph - N/A   Clear
7:55 PM 69.8 °F 62.6 °F 78% 29.92 in 10.0 mi Calm Calm - N/A   Clear
8:15 PM 69.8 °F 62.6 °F 78% 29.94 in 10.0 mi WSW 3.5 mph - N/A   Clear
8:35 PM 69.8 °F 64.4 °F 83% 29.94 in 10.0 mi South 3.5 mph - N/A   Clear
8:55 PM 69.8 °F 64.4 °F 83% 29.94 in 10.0 mi South 6.9 mph - N/A   Clear
9:15 PM 69.8 °F 64.4 °F 83% 29.94 in 10.0 mi South 3.5 mph - N/A   Scattered Clouds
9:35 PM 69.8 °F 64.4 °F 83% 29.97 in 10.0 mi Calm Calm - N/A   Scattered Clouds
9:55 PM 69.8 °F 64.4 °F 83% 29.98 in 10.0 mi Calm Calm - N/A Rain Light Rain
10:15 PM 69.8 °F 64.4 °F 83% 29.97 in 10.0 mi Calm Calm - N/A Rain Light Rain
10:35 PM 68.0 °F 68.0 °F 100% 29.92 in 10.0 mi SE 9.2 mph - N/A Rain Light Rain
10:55 PM 68.0 °F - N/A% 29.95 in 10.0 mi West 3.5 mph - N/A   Light Drizzle
11:15 PM 68.0 °F - N/A% 29.99 in 10.0 mi WSW 4.6 mph - N/A   Scattered Clouds
11:35 PM 68.0 °F - N/A% 29.97 in 10.0 mi Calm Calm - N/A   Mostly Cloudy
11:55 PM 68.0 °F - N/A% 29.96 in 10.0 mi Calm Calm - N/A Rain Light Rain